When you browse on this site, cookies collect data to enhance your experience and personalize the content and advertising you see.
Visit our Privacy Policy to learn more. By continuing to use the site, you agree to this use of cookies and data.
  • In Belgium
  • List of Countries
  • For 7 days
  • Water Temperature
  • Satellite Maps
  • Weather Map
  • Weather Widgets
  • user-avatar
    Login

    Hourly Weather Archena

    Today, 11 December, Tuesday

    Time Temperature Precipitation Wind Pressure Humidity
    00:00 +9°C° 0 mm 0 mps 736 mmHg 86%
    01:00 +9°C° 0 mm 0 mps 736 mmHg 86%
    02:00 +8°C° 0 mm 0 mps 736 mmHg 87%
    03:00 +8°C° 0 mm 0 mps 735 mmHg 87%
    04:00 +8°C° 0 mm 0 mps 735 mmHg 87%
    05:00 +8°C° 0 mm 0 mps 735 mmHg 87%
    06:00 +7°C° 0 mm 0 mps 735 mmHg 86%
    07:00 +9°C° 0 mm 0 mps 735 mmHg 79%
    08:00 +11°C° 0 mm 0 mps 735 mmHg 72%
    09:00 +13°C° 0 mm 0 mps 735 mmHg 65%
    10:00 +15°C° 0 mm 1 mps 735 mmHg 59%
    11:00 +16°C° 0 mm 1 mps 735 mmHg 53%
    12:00 +19°C° 0 mm 1 mps 735 mmHg 46%
    13:00 +19°C° 0 mm 1 mps 735 mmHg 45%
    14:00 +20°C° 0 mm 1 mps 734 mmHg 43%
    15:00 +20°C° 0 mm 1 mps 734 mmHg 42%
    16:00 +18°C° 0 mm 1 mps 734 mmHg 50%
    17:00 +15°C° 0 mm 1 mps 734 mmHg 59%
    18:00 +13°C° 0 mm 1 mps 734 mmHg 67%
    19:00 +13°C° 0 mm 1 mps 734 mmHg 66%
    20:00 +13°C° 0 mm 2 mps 734 mmHg 66%
    21:00 +13°C° 0 mm 2 mps 734 mmHg 65%
    22:00 +13°C° 0 mm 2 mps 734 mmHg 65%
    23:00 +13°C° 0 mm 2 mps 734 mmHg 64%

    Tomorrow, 12 December, Wednesday

    Time Temperature Precipitation Wind Pressure Humidity
    00:00 +13°C° 0 mm 2 mps 734 mmHg 63%
    01:00 +12°C° 0 mm 2 mps 734 mmHg 64%
    02:00 +12°C° 0 mm 2 mps 734 mmHg 65%
    03:00 +12°C° 0 mm 2 mps 733 mmHg 66%
    04:00 +10°C° 0 mm 2 mps 733 mmHg 67%
    05:00 +10°C° 0 mm 2 mps 733 mmHg 69%
    06:00 +10°C° 0 mm 2 mps 733 mmHg 71%
    07:00 +12°C° 0 mm 2 mps 734 mmHg 67%
    08:00 +13°C° 0 mm 2 mps 734 mmHg 64%
    09:00 +14°C° 0 mm 2 mps 734 mmHg 60%
    10:00 +15°C° 0 mm 2 mps 734 mmHg 55%
    11:00 +17°C° 0 mm 2 mps 734 mmHg 49%
    12:00 +18°C° 0 mm 2 mps 734 mmHg 44%
    13:00 +19°C° 0 mm 2 mps 733 mmHg 42%
    14:00 +19°C° 0 mm 2 mps 732 mmHg 41%
    15:00 +19°C° 0 mm 2 mps 732 mmHg 40%
    16:00 +17°C° 0 mm 2 mps 732 mmHg 46%
    17:00 +16°C° 0 mm 2 mps 731 mmHg 53%
    18:00 +14°C° 0 mm 2 mps 731 mmHg 59%
    19:00 +14°C° 0 mm 2 mps 731 mmHg 62%
    20:00 +13°C° 0 mm 2 mps 731 mmHg 65%
    21:00 +13°C° 0 mm 2 mps 731 mmHg 67%
    22:00 +13°C° 0 mm 2 mps 731 mmHg 67%
    23:00 +13°C° 0 mm 2 mps 731 mmHg 67%

    Day after tomorrow, 13 December, Thursday

    Time Temperature Precipitation Wind Pressure Humidity
    00:00 +13°C° 0 mm 2 mps 730 mmHg 67%
    01:00 +13°C° 0 mm 2 mps 730 mmHg 67%
    02:00 +12°C° 0 mm 2 mps 730 mmHg 68%
    03:00 +12°C° 0 mm 2 mps 729 mmHg 69%
    04:00 +12°C° 0 mm 2 mps 729 mmHg 69%
    05:00 +12°C° 0 mm 2 mps 728 mmHg 69%
    06:00 +12°C° 0 mm 2 mps 728 mmHg 69%
    07:00 +13°C° 0 mm 2 mps 727 mmHg 67%
    08:00 +13°C° 0 mm 2 mps 726 mmHg 65%
    09:00 +13°C° 0 mm 3 mps 726 mmHg 63%
    10:00 +13°C° 0.7 mm 5 mps 726 mmHg 62%
    11:00 +12°C° 0.7 mm 7 mps 725 mmHg 61%
    12:00 +12°C° 0.7 mm 9 mps 725 mmHg 59%
    13:00 +12°C° 0.1 mm 11 mps 725 mmHg 54%
    14:00 +10°C° 0.1 mm 13 mps 724 mmHg 49%
    15:00 +10°C° 0.1 mm 15 mps 724 mmHg 44%
    16:00 +9°C° 0 mm 15 mps 724 mmHg 46%
    17:00 +9°C° 0 mm 15 mps 725 mmHg 48%
    18:00 +8°C° 0 mm 15 mps 725 mmHg 50%
    19:00 +7°C° 0 mm 16 mps 726 mmHg 49%
    20:00 +7°C° 0 mm 17 mps 726 mmHg 49%
    21:00 +6°C° 0 mm 18 mps 726 mmHg 49%
    22:00 +6°C° 0 mm 17 mps 727 mmHg 50%
    23:00 +6°C° 0 mm 16 mps 727 mmHg 51%

    14 December, Friday

    Time Temperature Precipitation Wind Pressure Humidity
    00:00 +6°C° 0 mm 16 mps 727 mmHg 53%
    01:00 +5°C° 0 mm 14 mps 728 mmHg 54%
    02:00 +5°C° 0 mm 13 mps 728 mmHg 55%
    03:00 +5°C° 0 mm 12 mps 728 mmHg 56%
    04:00 +5°C° 0 mm 12 mps 729 mmHg 57%
    05:00 +4°C° 0 mm 12 mps 729 mmHg 59%
    06:00 +4°C° 0 mm 11 mps 730 mmHg 60%
    07:00 +6°C° 0 mm 11 mps 731 mmHg 59%
    08:00 +6°C° 0 mm 11 mps 732 mmHg 57%
    09:00 +7°C° 0 mm 11 mps 733 mmHg 56%
    10:00 +8°C° 0 mm 11 mps 733 mmHg 53%
    11:00 +9°C° 0 mm 11 mps 734 mmHg 49%
    12:00 +11°C° 0 mm 11 mps 734 mmHg 46%
    13:00 +12°C° 0 mm 10 mps 734 mmHg 46%
    14:00 +12°C° 0 mm 9 mps 734 mmHg 46%
    15:00 +12°C° 0 mm 8 mps 734 mmHg 46%
    16:00 +11°C° 0 mm 7 mps 735 mmHg 50%
    17:00 +10°C° 0 mm 6 mps 736 mmHg 53%
    18:00 +9°C° 0 mm 5 mps 736 mmHg 57%
    19:00 +8°C° 0 mm 5 mps 737 mmHg 58%
    20:00 +8°C° 0 mm 5 mps 737 mmHg 59%
    21:00 +8°C° 0 mm 5 mps 738 mmHg 61%
    22:00 +7°C° 0 mm 4 mps 738 mmHg 61%
    23:00 +7°C° 0 mm 4 mps 738 mmHg 62%

    15 December, Saturday

    Time Temperature Precipitation Wind Pressure Humidity
    00:00 +7°C° 0 mm 4 mps 738 mmHg 63%
    01:00 +8°C° 0 mm 3 mps 737 mmHg 64%
    02:00 +7°C° 0 mm 3 mps 737 mmHg 64%
    03:00 +7°C° 0 mm 3 mps 737 mmHg 64%
    04:00 +7°C° 0 mm 3 mps 738 mmHg 65%
    05:00 +7°C° 0 mm 3 mps 738 mmHg 65%
    06:00 +5°C° 0 mm 3 mps 738 mmHg 66%
    07:00 +8°C° 0 mm 2 mps 738 mmHg 61%
    08:00 +9°C° 0 mm 2 mps 739 mmHg 57%
    09:00 +10°C° 0 mm 2 mps 739 mmHg 52%
    10:00 +12°C° 0 mm 2 mps 739 mmHg 47%
    11:00 +14°C° 0 mm 2 mps 739 mmHg 41%
    12:00 +16°C° 0 mm 2 mps 739 mmHg 35%
    13:00 +16°C° 0 mm 2 mps 739 mmHg 35%
    14:00 +17°C° 0 mm 2 mps 738 mmHg 34%
    15:00 +17°C° 0 mm 2 mps 738 mmHg 33%
    16:00 +15°C° 0 mm 2 mps 738 mmHg 39%
    17:00 +13°C° 0 mm 2 mps 738 mmHg 45%
    18:00 +12°C° 0 mm 2 mps 738 mmHg 51%
    19:00 +10°C° 0 mm 2 mps 738 mmHg 52%
    20:00 +10°C° 0 mm 2 mps 738 mmHg 53%
    21:00 +11°C° 0 mm 1 mps 739 mmHg 54%
    22:00 +10°C° 0 mm 1 mps 738 mmHg 54%
    23:00 +10°C° 0 mm 1 mps 738 mmHg 54%

    16 December, Sunday

    Time Temperature Precipitation Wind Pressure Humidity
    00:00 +10°C° 0 mm 1 mps 738 mmHg 55%
    01:00 +10°C° 0 mm 1 mps 738 mmHg 56%
    02:00 +9°C° 0 mm 1 mps 737 mmHg 58%
    03:00 +9°C° 0 mm 1 mps 737 mmHg 59%
    04:00 +9°C° 0 mm 1 mps 737 mmHg 60%
    05:00 +9°C° 0 mm 1 mps 737 mmHg 61%
    06:00 +9°C° 0 mm 1 mps 737 mmHg 62%
    07:00 +11°C° 0 mm 1 mps 737 mmHg 57%
    08:00 +12°C° 0 mm 1 mps 737 mmHg 52%
    09:00 +14°C° 0 mm 1 mps 738 mmHg 47%
    10:00 +16°C° 0 mm 1 mps 738 mmHg 41%
    11:00 +18°C° 0 mm 1 mps 737 mmHg 35%
    12:00 +20°C° 0 mm 1 mps 737 mmHg 30%
    13:00 +20°C° 0 mm 1 mps 737 mmHg 29%
    14:00 +21°C° 0 mm 1 mps 737 mmHg 29%
    15:00 +20°C° 0 mm 2 mps 737 mmHg 28%
    16:00 +18°C° 0 mm 2 mps 737 mmHg 34%
    17:00 +16°C° 0 mm 2 mps 737 mmHg 40%
    18:00 +14°C° 0 mm 2 mps 737 mmHg 46%
    19:00 +13°C° 0 mm 2 mps 737 mmHg 48%
    20:00 +13°C° 0 mm 2 mps 738 mmHg 49%
    21:00 +12°C° 0 mm 1 mps 738 mmHg 50%
    22:00 +12°C° 0 mm 1 mps 738 mmHg 50%
    23:00 +12°C° 0 mm 1 mps 738 mmHg 50%
    Show more